{"data":{"norad_id":57050,"intl_designator":"2023-088C","name":"STARLINK-5845","alt_names":[],"object_type":"PAYLOAD","status":"ACTIVE","operator":null,"country":"US","launch_date":"2023-06-22","launch_site_code":"AFWTR","launch_vehicle":null,"mission":null,"orbit_class":"UNKNOWN","rcs_meters":null,"size_class":null,"mass_kg":null,"dimensions":null,"purposes":["comms"],"wikipedia_slug":null,"has_3d_model":false,"image_url":null,"decayed_at":null,"tle_current":{"epoch":"2026-05-25T03:01:35.835744Z","epoch_age_seconds":67432,"freshness":"FRESH","line1":"1 57050U 23088C   26145.12610921 -.00000506  00000+0 -88769-5 0  9993","line2":"2 57050  43.0030  38.8770 0000903 227.8597 132.2178 15.27578683162021","mean_motion":15.27578683,"eccentricity":9.03e-5,"inclination_deg":43.003,"raan_deg":38.877,"arg_perigee_deg":227.8597,"mean_anomaly_deg":132.2178,"bstar":-8.8769e-6,"rev_number":16202,"period_min":94.266829985608,"perigee_km":482.4334741537,"apogee_km":483.67260507485,"semimajor_km":6861.1900396143,"source":"CELESTRAK","updated_at":"2026-05-25T13:38:18.208034Z"}}}